Weather History for Taylorville, IL

Change the Weather History Date:

Sunday, November 25, 2012

  Actual Average (KSPI) Record (KSPI)
Temperature  
Mean Temperature 38 °F 38 °F  
Max Temperature 48 °F 47 °F 69 °F (2006)
Min Temperature 28 °F 30 °F 0 °F (1950)
Degree Days  
Heating Degree Days 27 27  
Month to date heating degree days 519  
Since 1 July heating degree days 929  
Cooling Degree Days 0 0  
Month to date cooling degree days 0  
Year to date cooling degree days 1121  
Moisture  
Dew Point 26 °F    
Average Humidity 65    
Maximum Humidity 86    
Minimum Humidity 46    
Precipitation  
Precipitation 0.00 in 0.11 in 0.90 in (1986)
Month to date precipitation 2.67  
Year to date precipitation 34.37  
Snow  
Snow 0.00 in 0.10 in 1.90 in (1972)
Month to date snowfall 0.4  
Since 1 July snowfall 0.4  
Since 1 September snowfall 0.4  
Snow Depth -    
Sea Level Pressure  
Sea Level Pressure 29.95 in    
Wind  
Wind Speed 9 mph (WSW)    
Max Wind Speed 13 mph    
Max Gust Speed 16 mph    
Visibility 10 miles    
Events      
T = Trace of Precipitation, MM = Missing Value Source: NWS Daily Summary

Daily Weather History Graph

Daily Weather History Graph

Search for Another Location

Airport:

Trip Planner

Search our weather history database for the weather conditions in past years. The results will help you decide how hot, cold, wet, or windy it might be!

Date:

Astronomy

Nov. 25, 2012 Rise Set
Actual Time 6:53 AM CST 4:35 PM CST
Civil Twilight 6:23 AM CST 5:05 PM CST
Nautical Twilight 5:50 AM CST 5:38 PM CST
Astronomical Twilight 5:18 AM CST 6:10 PM CST
Moon 2:52 PM CST (11/25) 4:07 AM CST (11/25)
Length of Visible Light 10h 41m
Length of Day
9h 42m
Waxing Gibbous, 93% of the Moon is Illuminated
Nov 25
Waxing Gibbous
Nov 28
Full
Dec 6
Last Quarter
Dec 13
New
Dec 19
First Quarter

Hourly Weather History & Observations

Time (CST) Temp. Windchill Dew Point Humidity Pressure Visibility Wind Dir Wind Speed Gust Speed Precip Events Conditions
12:15 AM 28.4 °F 19.1 °F 21.2 °F 74% 30.00 in 10.0 mi South 10.4 mph - N/A   Clear
12:35 AM 28.4 °F 18.5 °F 21.2 °F 74% 29.99 in 10.0 mi South 11.5 mph - N/A   Clear
12:55 AM 28.4 °F 18.5 °F 23.0 °F 80% 29.98 in 10.0 mi South 11.5 mph - N/A   Clear
1:15 AM 28.4 °F 18.0 °F 23.0 °F 80% 29.97 in 10.0 mi South 12.7 mph - N/A   Clear
1:35 AM 28.4 °F 18.5 °F 23.0 °F 80% 29.96 in 10.0 mi South 11.5 mph - N/A   Clear
1:55 AM 30.2 °F 20.2 °F 23.0 °F 75% 29.96 in 10.0 mi South 12.7 mph - N/A   Clear
2:15 AM 30.2 °F 21.3 °F 23.0 °F 75% 29.96 in 10.0 mi South 10.4 mph - N/A   Clear
2:35 AM 30.2 °F 21.3 °F 23.0 °F 75% 29.95 in 10.0 mi South 10.4 mph - N/A   Clear
2:55 AM 30.2 °F 21.9 °F 23.0 °F 75% 29.94 in 10.0 mi South 9.2 mph - N/A   Clear
3:15 AM 30.2 °F 20.8 °F 23.0 °F 75% 29.93 in 10.0 mi South 11.5 mph - N/A   Clear
3:35 AM 30.2 °F 20.8 °F 23.0 °F 75% 29.91 in 10.0 mi South 11.5 mph - N/A   Clear
3:55 AM 30.2 °F 21.3 °F 23.0 °F 75% 29.91 in 10.0 mi South 10.4 mph - N/A   Clear
4:15 AM 32.0 °F 23.6 °F 23.0 °F 69% 29.91 in 10.0 mi South 10.4 mph - N/A   Clear
4:35 AM 32.0 °F 23.0 °F 23.0 °F 69% 29.91 in 10.0 mi South 11.5 mph 16.1 mph N/A   Clear
4:55 AM 33.8 °F 24.8 °F 23.0 °F 65% 29.91 in 10.0 mi SSW 12.7 mph - N/A   Clear
5:15 AM 33.8 °F 25.8 °F 24.8 °F 70% 29.91 in 10.0 mi SSW 10.4 mph - N/A   Clear
5:35 AM 33.8 °F 25.3 °F 24.8 °F 70% 29.90 in 10.0 mi South 11.5 mph - N/A   Clear
5:55 AM 33.8 °F 25.3 °F 24.8 °F 70% 29.90 in 10.0 mi SSW 11.5 mph - N/A   Clear
6:15 AM 33.8 °F 25.3 °F 24.8 °F 70% 29.90 in 10.0 mi SSW 11.5 mph - N/A   Clear
6:35 AM 33.8 °F 26.4 °F 24.8 °F 70% 29.91 in 10.0 mi SSW 9.2 mph - N/A   Clear
6:55 AM 33.8 °F 25.3 °F 24.8 °F 70% 29.91 in 10.0 mi SSW 11.5 mph - N/A   Clear
7:15 AM 33.8 °F 26.4 °F 24.8 °F 70% 29.91 in 10.0 mi SSW 9.2 mph - N/A   Clear
7:35 AM 33.8 °F 27.0 °F 24.8 °F 70% 29.92 in 10.0 mi SSW 8.1 mph - N/A   Clear
7:55 AM 33.8 °F 27.0 °F 24.8 °F 70% 29.92 in 10.0 mi SSW 8.1 mph - N/A   Clear
8:15 AM 35.6 °F 28.6 °F 24.8 °F 65% 29.92 in 10.0 mi SSW 9.2 mph - N/A   Clear
8:35 AM 35.6 °F 29.9 °F 24.8 °F 65% 29.93 in 10.0 mi SSW 6.9 mph - N/A   Clear
8:55 AM 37.4 °F 30.3 °F 24.8 °F 60% 29.92 in 10.0 mi SW 10.4 mph - N/A   Clear
9:15 AM 39.2 °F 32.5 °F 24.8 °F 56% 29.93 in 10.0 mi SW 10.4 mph - N/A   Clear
9:35 AM 39.2 °F 32.5 °F 26.6 °F 61% 29.93 in 10.0 mi SW 10.4 mph - N/A   Clear
9:55 AM 41.0 °F 35.2 °F 26.6 °F 57% 29.93 in 10.0 mi SW 9.2 mph - N/A   Clear
10:15 AM 42.8 °F 37.5 °F 26.6 °F 53% 29.93 in 10.0 mi WSW 9.2 mph - N/A   Clear
10:35 AM 44.6 °F 39.2 °F 26.6 °F 49% 29.92 in 10.0 mi WSW 10.4 mph - N/A   Clear
10:55 AM 44.6 °F 38.8 °F 26.6 °F 49% 29.92 in 10.0 mi West 11.5 mph - N/A   Clear
11:15 AM 44.6 °F 39.7 °F 26.6 °F 49% 29.91 in 10.0 mi West 9.2 mph - N/A   Clear
11:35 AM 44.6 °F 39.2 °F 26.6 °F 49% 29.91 in 10.0 mi WNW 10.4 mph - N/A   Clear
11:55 AM 44.6 °F 40.2 °F 26.6 °F 49% 29.91 in 10.0 mi West 8.1 mph - N/A   Clear
12:15 PM 44.6 °F 40.2 °F 26.6 °F 49% 29.91 in 10.0 mi West 8.1 mph - N/A   Clear
12:35 PM 46.4 °F 42.4 °F 26.6 °F 46% 29.91 in 10.0 mi West 8.1 mph - N/A   Clear
12:55 PM 46.4 °F 42.4 °F 26.6 °F 46% 29.91 in 10.0 mi West 8.1 mph - N/A   Clear
1:15 PM 46.4 °F 42.4 °F 28.4 °F 50% 29.91 in 10.0 mi West 8.1 mph - N/A   Clear
1:35 PM 46.4 °F 42.9 °F 28.4 °F 50% 29.91 in 10.0 mi West 6.9 mph - N/A   Clear
1:55 PM 46.4 °F 42.9 °F 28.4 °F 50% 29.91 in 10.0 mi WNW 6.9 mph - N/A   Clear
2:15 PM 46.4 °F 44.3 °F 28.4 °F 50% 29.91 in 10.0 mi West 4.6 mph - N/A   Clear
2:35 PM 48.2 °F - 28.4 °F 46% 29.91 in 10.0 mi WNW 6.9 mph - N/A   Clear
2:55 PM 46.4 °F 42.9 °F 28.4 °F 50% 29.92 in 10.0 mi WNW 6.9 mph - N/A   Clear
3:15 PM 46.4 °F 44.3 °F 28.4 °F 50% 29.92 in 10.0 mi West 4.6 mph - N/A   Clear
3:35 PM 46.4 °F 44.3 °F 28.4 °F 50% 29.92 in 10.0 mi WNW 4.6 mph - N/A   Clear
3:55 PM 46.4 °F - 28.4 °F 50% 29.93 in 10.0 mi Calm Calm - N/A   Clear
4:15 PM 44.6 °F 42.2 °F 28.4 °F 53% 29.93 in 10.0 mi WNW 4.6 mph - N/A   Clear
4:35 PM 44.6 °F 43.1 °F 28.4 °F 53% 29.94 in 10.0 mi WNW 3.5 mph - N/A   Clear
4:55 PM 44.6 °F 43.1 °F 28.4 °F 53% 29.94 in 10.0 mi WNW 3.5 mph - N/A   Clear
5:15 PM 42.8 °F 41.1 °F 30.2 °F 61% 29.96 in 10.0 mi NW 3.5 mph - N/A   Clear
5:35 PM 42.8 °F 40.1 °F 30.2 °F 61% 29.97 in 10.0 mi NNW 4.6 mph - N/A   Scattered Clouds
5:55 PM 41.0 °F 38.0 °F 30.2 °F 65% 29.98 in 10.0 mi NNW 4.6 mph - N/A   Clear
6:15 PM 41.0 °F - 28.4 °F 61% 29.99 in 10.0 mi Calm Calm - N/A   Clear
6:35 PM 41.0 °F - 28.4 °F 61% 29.99 in 10.0 mi Calm Calm - N/A   Clear
6:55 PM 39.2 °F 35.9 °F 28.4 °F 65% 29.99 in 10.0 mi North 4.6 mph - N/A   Clear
7:15 PM 39.2 °F 35.0 °F 28.4 °F 65% 30.00 in 10.0 mi North 5.8 mph - N/A   Clear
7:35 PM 37.4 °F - 28.4 °F 70% 30.00 in 10.0 mi Calm Calm - N/A   Clear
7:55 PM 37.4 °F 34.9 °F 28.4 °F 70% 30.00 in 10.0 mi North 3.5 mph - N/A   Clear
8:15 PM 37.4 °F 34.9 °F 28.4 °F 70% 30.01 in 10.0 mi North 3.5 mph - N/A   Clear
8:35 PM 35.6 °F 31.7 °F 28.4 °F 75% 30.02 in 10.0 mi North 4.6 mph - N/A   Clear
8:55 PM 33.8 °F 28.6 °F 28.4 °F 81% 30.03 in 10.0 mi North 5.8 mph - N/A   Clear
9:15 PM 33.8 °F 27.0 °F 28.4 °F 81% 30.04 in 10.0 mi North 8.1 mph - N/A   Clear
9:35 PM 35.6 °F 29.2 °F 28.4 °F 75% 30.04 in 10.0 mi North 8.1 mph - N/A   Clear
9:55 PM 33.8 °F 27.7 °F 26.6 °F 75% 30.04 in 10.0 mi North 6.9 mph - N/A   Clear
10:15 PM 32.0 °F 25.6 °F 26.6 °F 80% 30.04 in 10.0 mi North 6.9 mph - N/A   Clear
10:35 PM 30.2 °F 22.6 °F 26.6 °F 86% 30.04 in 10.0 mi North 8.1 mph - N/A   Clear
10:55 PM 30.2 °F 26.7 °F 26.6 °F 86% 30.05 in 10.0 mi North 3.5 mph - N/A   Clear
11:15 PM 32.0 °F 28.7 °F 26.6 °F 80% 30.06 in 10.0 mi NNW 3.5 mph - N/A   Clear
11:35 PM 30.2 °F 24.3 °F 24.8 °F 80% 30.06 in 10.0 mi North 5.8 mph - N/A   Clear
11:55 PM 28.4 °F 23.3 °F 24.8 °F 86% 30.07 in 10.0 mi North 4.6 mph - N/A   Clear